TimeEDT,TemperatureF,Dew PointF,Humidity,Sea Level PressureIn,VisibilityMPH,Wind Direction,Wind SpeedMPH,Gust SpeedMPH,PrecipitationIn,Events,Conditions,WindDirDegrees,DateUTC
12:15 AM,34.0,27.7,78,29.75,10.0,NW,15.0,35.7,N/A,,Overcast,310,2014-03-30 04:15:00
12:35 AM,33.1,27.5,80,29.75,10.0,NW,13.8,28.8,N/A,,Overcast,310,2014-03-30 04:35:00
12:55 AM,32.0,26.2,79,29.75,10.0,WNW,13.8,29.9,N/A,,Overcast,300,2014-03-30 04:55:00
1:15 AM,32.0,25.9,78,29.75,5.0,West,16.1,32.2,N/A,,Haze,280,2014-03-30 05:15:00
1:35 AM,31.5,25.2,78,29.75,7.0,NW,16.1,35.7,N/A,,Overcast,320,2014-03-30 05:35:00
1:55 AM,30.7,24.3,77,29.73,7.0,WNW,27.6,39.1,N/A,,Overcast,300,2014-03-30 05:55:00
2:15 AM,30.2,24.4,79,29.72,5.0,NW,25.3,33.4,N/A,,Haze,310,2014-03-30 06:15:00
2:35 AM,30.0,23.9,78,29.72,5.0,NW,27.6,41.4,N/A,,Haze,310,2014-03-30 06:35:00
2:55 AM,30.2,23.9,77,29.71,5.0,NW,27.6,47.2,N/A,,Haze,310,2014-03-30 06:55:00
3:15 AM,30.0,23.2,76,29.70,5.0,NW,27.6,46.0,N/A,,Haze,310,2014-03-30 07:15:00
3:35 AM,29.8,23.7,78,29.70,4.0,NW,21.9,48.3,N/A,,Haze,310,2014-03-30 07:35:00
3:55 AM,29.8,23.0,76,29.69,4.0,NW,27.6,49.5,N/A,Snow,Light Snow,310,2014-03-30 07:55:00
4:15 AM,29.3,23.5,79,29.70,2.5,NW,27.6,44.9,N/A,Snow,Light Snow,320,2014-03-30 08:15:00
4:35 AM,29.3,23.0,77,29.69,3.0,NW,31.1,44.9,N/A,Snow,Light Snow,320,2014-03-30 08:35:00
4:55 AM,29.3,22.8,77,29.71,5.0,NW,27.6,44.9,N/A,Snow,Light Snow,320,2014-03-30 08:55:00
5:15 AM,29.3,23.0,77,29.71,5.0,NNW,26.5,39.1,N/A,Snow,Light Snow,330,2014-03-30 09:15:00
5:35 AM,29.3,23.0,77,29.72,4.0,NW,20.7,36.8,N/A,Snow,Light Snow,310,2014-03-30 09:35:00
5:55 AM,28.9,23.4,80,29.72,3.0,NW,19.6,35.7,N/A,Snow,Light Snow,320,2014-03-30 09:55:00
6:15 AM,29.3,23.0,77,29.70,3.0,NNW,32.2,51.8,N/A,Snow,Light Snow,330,2014-03-30 10:15:00
6:35 AM,29.3,23.0,77,29.71,5.0,NW,25.3,52.9,N/A,,Haze,320,2014-03-30 10:35:00
6:55 AM,29.3,23.7,80,29.74,4.0,NNW,23.0,38.0,N/A,,Haze,340,2014-03-30 10:55:00
7:15 AM,29.3,24.4,82,29.75,4.0,NW,21.9,41.4,N/A,,Haze,310,2014-03-30 11:15:00
7:35 AM,29.5,24.3,81,29.77,5.0,NW,23.0,36.8,N/A,,Haze,310,2014-03-30 11:35:00
7:55 AM,30.2,23.9,77,29.77,7.0,NW,18.4,35.7,N/A,,Overcast,320,2014-03-30 11:55:00
8:15 AM,30.2,24.8,80,29.79,4.0,NW,20.7,47.2,N/A,,Haze,310,2014-03-30 12:15:00
8:35 AM,30.2,25.5,83,29.80,4.0,WNW,20.7,39.1,N/A,,Haze,300,2014-03-30 12:35:00
8:55 AM,30.4,25.2,81,29.82,4.0,NW,11.5,41.4,N/A,,Haze,310,2014-03-30 12:55:00
9:15 AM,30.9,25.3,80,29.81,7.0,NW,15.0,32.2,N/A,,Overcast,320,2014-03-30 13:15:00
9:35 AM,31.1,25.7,80,29.81,3.0,NW,18.4,41.4,N/A,,Haze,320,2014-03-30 13:35:00
9:55 AM,31.6,26.1,80,29.81,4.0,NW,21.9,35.7,N/A,,Haze,310,2014-03-30 13:55:00
10:15 AM,32.0,26.4,80,29.81,5.0,NW,29.9,43.7,N/A,,Haze,310,2014-03-30 14:15:00
10:35 AM,32.4,26.8,80,29.83,5.0,NW,25.3,46.0,N/A,,Haze,310,2014-03-30 14:35:00
10:55 AM,32.9,27.3,80,29.84,5.0,NW,26.5,50.6,N/A,,Haze,310,2014-03-30 14:55:00
11:15 AM,32.2,27.3,82,29.85,4.0,NW,25.3,46.0,N/A,,Haze,320,2014-03-30 15:15:00
11:35 AM,32.5,27.3,81,29.88,4.0,NW,20.7,33.4,N/A,,Haze,310,2014-03-30 15:35:00
11:55 AM,32.9,27.1,79,29.88,5.0,NW,24.2,40.3,N/A,,Haze,310,2014-03-30 15:55:00
12:15 PM,33.3,27.5,79,29.88,7.0,NW,17.3,34.5,N/A,,Overcast,320,2014-03-30 16:15:00
12:35 PM,34.3,27.0,74,29.88,10.0,NW,15.0,31.1,N/A,,Overcast,320,2014-03-30 16:35:00
12:55 PM,34.7,26.6,72,29.88,10.0,NW,26.5,38.0,N/A,,Overcast,320,2014-03-30 16:55:00
1:15 PM,34.2,26.4,73,29.89,10.0,NW,21.9,41.4,N/A,,Overcast,310,2014-03-30 17:15:00
1:35 PM,34.3,25.7,71,29.89,10.0,NW,21.9,44.9,N/A,,Overcast,320,2014-03-30 17:35:00
1:55 PM,34.5,25.3,69,29.89,10.0,NW,15.0,29.9,N/A,,Overcast,310,2014-03-30 17:55:00
2:15 PM,35.4,25.0,66,29.89,10.0,NW,20.7,38.0,N/A,,Mostly Cloudy,310,2014-03-30 18:15:00
2:35 PM,36.5,23.0,58,29.87,10.0,NW,21.9,40.3,N/A,,Scattered Clouds,320,2014-03-30 18:35:00
2:55 PM,38.3,22.1,52,29.85,10.0,NW,33.4,47.2,N/A,,Clear,310,2014-03-30 18:55:00
3:15 PM,38.8,22.8,53,29.86,10.0,NW,33.4,51.8,N/A,,Clear,320,2014-03-30 19:15:00
3:35 PM,39.2,21.7,50,29.87,10.0,NW,28.8,49.5,N/A,,Clear,320,2014-03-30 19:35:00
3:55 PM,39.6,22.3,50,29.87,10.0,NW,29.9,43.7,N/A,,Clear,320,2014-03-30 19:55:00
4:15 PM,39.7,21.7,49,29.88,10.0,NW,31.1,50.6,N/A,,Clear,310,2014-03-30 20:15:00
4:35 PM,40.3,21.4,47,29.88,10.0,NW,29.9,48.3,N/A,,Clear,310,2014-03-30 20:35:00
4:55 PM,40.1,21.2,47,29.88,10.0,NW,33.4,51.8,N/A,,Clear,310,2014-03-30 20:55:00
5:15 PM,40.3,20.3,45,29.89,10.0,NW,34.5,52.9,N/A,,Clear,310,2014-03-30 21:15:00
5:35 PM,41.0,20.8,45,29.90,10.0,NW,31.1,42.6,N/A,,Clear,320,2014-03-30 21:35:00
5:55 PM,41.0,20.3,44,29.92,10.0,NW,29.9,44.9,N/A,,Clear,320,2014-03-30 21:55:00
6:15 PM,41.0,20.1,43,29.93,10.0,NW,24.2,47.2,N/A,,Clear,310,2014-03-30 22:15:00
6:35 PM,41.2,21.0,45,29.94,10.0,WNW,17.3,35.7,N/A,,Clear,300,2014-03-30 22:35:00
6:55 PM,40.6,21.4,46,29.96,10.0,NW,18.4,48.3,N/A,,Clear,320,2014-03-30 22:55:00
7:15 PM,40.3,21.2,47,29.95,10.0,NW,17.3,33.4,N/A,,Clear,310,2014-03-30 23:15:00
7:35 PM,39.7,21.9,49,29.96,10.0,WNW,16.1,40.3,N/A,,Clear,300,2014-03-30 23:35:00
7:55 PM,39.7,22.8,51,29.97,10.0,NW,13.8,32.2,N/A,,Clear,310,2014-03-30 23:55:00
8:15 PM,39.7,23.4,52,29.97,10.0,WNW,20.7,28.8,N/A,,Clear,300,2014-03-31 00:15:00
8:35 PM,39.7,23.5,52,29.98,10.0,WNW,23.0,38.0,N/A,,Clear,300,2014-03-31 00:35:00
8:55 PM,40.1,22.8,50,29.99,10.0,NW,21.9,44.9,N/A,,Clear,310,2014-03-31 00:55:00
9:15 PM,39.7,21.7,49,29.99,10.0,WNW,19.6,35.7,N/A,,Clear,300,2014-03-31 01:15:00
9:35 PM,39.7,20.5,46,30.00,10.0,NW,20.7,29.9,N/A,,Clear,310,2014-03-31 01:35:00
9:55 PM,40.1,19.9,44,30.00,10.0,NW,18.4,35.7,N/A,,Clear,320,2014-03-31 01:55:00
10:15 PM,39.7,21.0,47,30.01,10.0,NW,20.7,38.0,N/A,,Clear,320,2014-03-31 02:15:00
10:35 PM,39.7,19.9,45,30.02,10.0,NW,20.7,28.8,N/A,,Clear,320,2014-03-31 02:35:00
10:55 PM,39.6,19.9,45,30.02,10.0,NNW,20.7,31.1,N/A,,Clear,330,2014-03-31 02:55:00
11:15 PM,39.6,19.2,44,30.02,10.0,NW,21.9,36.8,N/A,,Clear,320,2014-03-31 03:15:00
11:35 PM,39.2,19.0,44,30.01,10.0,NW,24.2,36.8,N/A,,Clear,310,2014-03-31 03:35:00
11:55 PM,38.8,18.9,45,30.01,10.0,NW,23.0,34.5,N/A,,Clear,310,2014-03-31 03:55:00